Tracking 27124 objects as of 31-Mar-2023
HD Live streaming from Space Station
objects crossing your sky now

COSMOS 970 DEB

Track COSMOS 970 DEB now!
10-day predictions


NORAD ID: 10883
Int'l Code: 1977-121AE
Perigee: 896.0 km
Apogee: 1,086.9 km
Inclination: 65.8 °
Period: 104.8 minutes
Semi major axis: 7362 km
RCS: 0.0133 m2 (small)
Launch date: December 21, 1977
Source: Commonwealth of Independent States (former USSR) (CIS)
Launch site: TYURATAM MISSILE AND SPACE COMPLEX (TTMTR)

Note: This is SATELLITE DEBRIS
Your satellite tracking list
Your tracking list is empty




NASA's NSSDC Master Catalog

Two Line Element Set (TLE):
1 10883U 77121AE  23089.91163289  .00000800  00000-0  87811-3 0  9995
2 10883  65.8409 250.1936 0129647 313.6779 123.8150 13.74249678260824
Source of the keplerian elements: AFSPC